Starlink 1497

operational
NORAD ID: 45781 Int'l Des: 2020-038 Owner: SPXS Country: US Constellation: starlink
LEOCIRCULAR

关于 Starlink 1497

正在加载描述...

实时位置

正在加载3D地球...

即将过境

高度历史

Altitude vs Time

uPlot chart will show altitude changes over time

两行轨道根数

1 45781U 20038BD 25306.42715909 .00147156 00000-0 21696-2 0 9991
2 45781 53.0392 352.6256 0005872 295.6624 64.3778 15.54395662298352
Epoch: Nov 2, 2025 • Age: 34 hours

当前状态

高度 406.2 km
速度 7.67 km/s
星下点 34.45°N, 27.47°E
发射日期 Jun 13, 2020
运行时间 5.3 years
类型 internet

技术详情

分类 Payload
质量 260.00 kg
干质量 248.00 kg
总质量 260.00 kg
长度 0.20 m
直径 2.80 m
跨度 9.00 m
形状 Box + pan
制造商 SPXS
平台类型 Starlink
阶段状态 In Orbit
所有者/国家 SPXS/US

大型星座

Loading constellations...